Location: Kaarina
(60.4167°N, 22.4167°E)
Time: 08:37:02
(UTC+03:00)

Cosmos 1867 - Pass Details

Date: 24 August 2019
Orbit: 775 x 801 km, 65.0° (Epoch: 21 September)

Event Time Altitude Azimuth Distance (km) Brightness Sun altitude
Rises 21:45:35 0° 301° (WNW) 3,320 9.6 -5.7°
Reaches altitude 10° 21:48:01 10° 301° (WNW) 2,388 7.9 -6.0°
Maximum altitude 21:53:32 89° 34° (NNE) 810 3.7 -6.5°
Drops below altitude 10° 21:59:02 10° 123° (ESE) 2,373 5.4 -7.1°
Enters shadow 21:59:20 - 123° (ESE) 2,490 5.5 -7.1°
